User: anonymous   Login
Location: Unspecified
(0.0000°N, 0.0000°E)
Time: 08:56:31
(UTC+00:00)
Language:

STARLINK-34203 - Orbit

View from above orbital plane
View from above orbital plane
View from above satellite
View from above satellite

Ground track
Ground track

The orbit is defined by the following mean orbital elements,

1 64246U          26145.54010657 +.00000000 +00000-0 +28479-3 0 00004
2 64246  43.0014 232.9541 0001030 272.1725  87.9009 15.27588348    06
Epoch (UTC): 25 May 2026 12:57:45
Eccentricity: 0.0001030
inclination: 43.0014°
perigee height: 482 km
apogee height: 484 km
right ascension of ascending node: 232.9541°
argument of perigee: 272.1725°
revolutions per day: 15.27588348
mean anomaly at epoch: 87.9009°

The dashed part of the orbit path shows where the satellite is in the earth's shadow,  

DLR